Home > Time Zones > World Clock > Weather > Iran > Kerman > Past weeks

Flag for Iran Weather past 2 weeks in Kerman, Iran

Now
95 °F

Sunny.


Feels Like: 90 °F
Forecast: 61 / 98 °F
Wind: 5 mph from East

Location: Kerman Airport

Current Time: Jul 23, 2014 at 12:37:50 PM

Latest Report: Jul 23, 2014 at 10:30 AM


Visibility: 10 mi

Pressure: 29.89 "Hg

Humidity: 8%

Dew point: 25 °F

Location of KermanLocation

Historic Weather in Kerman — Graph

°F

Kerman temperature yesterday

Maximum temperature yesterday: 102 °F (at 4:30 PM)
Minimum temperature yesterday: 64 °F (at 5:30 AM)
Average temperature yesterday: 87 °F

Past Weeks' High & Low Weather Summary

 TemperatureHumidityPressure
High102 °F (Jul 22, 4:30 PM)32% (Jul 10, 6:20 AM)30.04 "Hg (Jul 10, 6:20 AM)
Low54 °F (Jul 19, 5:30 AM)1% (Jul 19, 3:00 PM)29.77 "Hg (Jul 20, 5:30 AM)
Average84 °F11%29.94 "Hg
* Reported Jul 8 10:30 AM — Jul 23 10:30 AM, Kerman, Weather by CustomWeather, © 2014

Note: Actual official high and low records may vary slightly from our data, if they occured in-between our weather recording intervals... More about our weather records

Advertising

Kerman weather history for previous 24 hours

 ConditionsComfort  
Time TempWeatherWind HumidityBarometerVisibility
10:30 AM
Jul 23
95 °FSunny.5 mph8%29.89 "Hg10 mi
9:30 AM88 °FSunny.7 mph10%29.89 "Hg10 mi
8:30 AM82 °FSunny.5 mph11%29.89 "Hg10 mi
7:30 AM73 °FSunny.7 mph14%29.89 "Hg10 mi
6:20 AM64 °FClear.5 mph16%29.89 "Hg10 mi
5:20 AM68 °FClear.7 mph18%29.86 "Hg10 mi
4:30 AM70 °FClear.7 mph21%29.83 "Hg10 mi
3:20 AM70 °FClear.5 mph13%29.83 "Hg10 mi
8:20 PM
Jul 22
91 °FSunny.12 mph4%29.80 "Hg10 mi
7:30 PM95 °FSunny.14 mph4%29.80 "Hg10 mi
6:30 PM102 °FSunny.7 mph5%29.80 "Hg10 mi
5:30 PM102 °FSunny.14 mph4%29.80 "Hg10 mi
4:30 PM102 °FSunny.9 mph4%29.80 "Hg10 mi
3:30 PM100 °FSunny.7 mph5%29.83 "Hg10 mi
3:00 PM100 °FSunny.7 mph5%29.83 "Hg10 mi
2:30 PM100 °FSunny.7 mph5%29.83 "Hg10 mi
1:30 PM99 °FSunny.7 mph6%29.86 "Hg10 mi
1:00 PM99 °FSunny.7 mph7%29.86 "Hg10 mi
12:30 PM97 °FSunny.7 mph7%29.89 "Hg10 mi
Weather by CustomWeather, © 2014

See weather overviewHow to use our weather pages